| time (UTC) | temp C | wind direction | speed KPH | gust KPH | rain 1hr cm | rain 24hr cm | rain mn cm | humidity % | barometer mb |
| 20260507230044 | 17 | 322 | 8.0 | 16.1 | 0.00 | 0.05 | 0.00 | 80 | 1008.6 |
| 20260507225544 | 17 | 11 | 11.3 | 17.7 | 0.00 | 0.05 | 0.00 | 80 | 1008.6 |
| 20260507225044 | 17 | 315 | 14.5 | 17.7 | 0.00 | 0.08 | 0.00 | 80 | 1008.6 |
| 20260507224544 | 17 | 329 | 9.7 | 17.7 | 0.00 | 0.08 | 0.00 | 81 | 1008.7 |
| 20260507224044 | 17 | 323 | 9.7 | 16.1 | 0.00 | 0.08 | 0.00 | 81 | 1008.8 |
| 20260507223544 | 17 | 324 | 12.9 | 16.1 | 0.00 | 0.08 | 0.00 | 81 | 1008.8 |
| 20260507223044 | 17 | 337 | 6.4 | 16.1 | 0.00 | 0.10 | 0.00 | 81 | 1008.8 |
| 20260507222544 | 17 | 331 | 4.8 | 17.7 | 0.00 | 0.10 | 0.00 | 81 | 1008.9 |
| 20260507222044 | 17 | 0 | 6.4 | 14.5 | 0.00 | 0.10 | 0.00 | 80 | 1008.8 |
| 20260507221544 | 17 | 312 | 6.4 | 14.5 | 0.00 | 0.10 | 0.00 | 80 | 1008.8 |
| 20260507221044 | 17 | 328 | 6.4 | 12.9 | 0.00 | 0.10 | 0.00 | 79 | 1008.9 |
| 20260507220544 | 17 | 303 | 8.0 | 17.7 | 0.00 | 0.10 | 0.00 | 79 | 1008.8 |
| 20260507220044 | 18 | 326 | 8.0 | 16.1 | 0.00 | 0.10 | 0.00 | 78 | 1008.8 |
| 20260507215544 | 18 | 332 | 9.7 | 17.7 | 0.00 | 0.10 | 0.00 | 78 | 1008.9 |
| 20260507215044 | 18 | 355 | 8.0 | 16.1 | 0.00 | 0.10 | 0.00 | 77 | 1009.0 |
| 20260507214544 | 18 | 328 | 9.7 | 16.1 | 0.00 | 0.10 | 0.00 | 77 | 1009.0 |
| 20260507214047 | 18 | 296 | 3.2 | 14.5 | 0.00 | 0.10 | 0.00 | 77 | 1009.1 |
| 20260507213544 | 18 | 317 | 6.4 | 14.5 | 0.00 | 0.10 | 0.00 | 77 | 1009.2 |
| 20260507213044 | 18 | 331 | 4.8 | 12.9 | 0.00 | 0.10 | 0.00 | 77 | 1009.2 |
| 20260507212544 | 18 | 321 | 4.8 | 12.9 | 0.00 | 0.10 | 0.00 | 77 | 1009.3 |
| 20260507212044 | 18 | 348 | 6.4 | 14.5 | 0.00 | 0.10 | 0.00 | 77 | 1009.3 |
| 20260507211547 | 18 | 326 | 6.4 | 12.9 | 0.00 | 0.10 | 0.00 | 78 | 1009.4 |
| 20260507211047 | 18 | 300 | 6.4 | 11.3 | 0.00 | 0.10 | 0.00 | 78 | 1009.4 |
| 20260507210544 | 18 | 306 | 8.0 | 8.0 | 0.00 | 0.10 | 0.00 | 77 | 1009.4 |
| 20260507210047 | 18 | 329 | 6.4 | 11.3 | 0.00 | 0.10 | 0.00 | 77 | 1009.5 |
| 20260507205544 | 18 | 336 | 8.0 | 12.9 | 0.00 | 0.10 | 0.00 | 78 | 1009.5 |
| 20260507205044 | 18 | 314 | 4.8 | 8.0 | 0.00 | 0.10 | 0.00 | 78 | 1009.5 |
| 20260507204544 | 18 | 313 | 8.0 | 11.3 | 0.00 | 0.10 | 0.00 | 78 | 1009.5 |
| 20260507204044 | 18 | 306 | 3.2 | 14.5 | 0.00 | 0.10 | 0.00 | 78 | 1009.4 |
| 20260507203545 | 18 | 304 | 6.4 | 14.5 | 0.00 | 0.10 | 0.00 | 78 | 1009.4 |
| 20260507203044 | 18 | 322 | 1.6 | 9.7 | 0.00 | 0.10 | 0.00 | 78 | 1009.5 |
| 20260507202544 | 18 | 309 | 8.0 | 11.3 | 0.00 | 0.10 | 0.00 | 78 | 1009.4 |
| 20260507202044 | 18 | 334 | 6.4 | 12.9 | 0.00 | 0.10 | 0.00 | 79 | 1009.5 |
| 20260507201545 | 17 | 316 | 4.8 | 11.3 | 0.00 | 0.10 | 0.00 | 79 | 1009.5 |
| 20260507201044 | 17 | 337 | 8.0 | 9.7 | 0.00 | 0.10 | 0.00 | 79 | 1009.6 |
| 20260507200547 | 17 | 317 | 4.8 | 12.9 | 0.00 | 0.10 | 0.00 | 79 | 1009.6 |
| 20260507200044 | 17 | 311 | 6.4 | 9.7 | 0.00 | 0.10 | 0.00 | 80 | 1009.6 |
| 20260507195544 | 17 | 280 | 0.0 | 12.9 | 0.00 | 0.10 | 0.00 | 79 | 1009.7 |
| 20260507195044 | 17 | 334 | 6.4 | 14.5 | 0.00 | 0.13 | 0.00 | 79 | 1009.7 |
| 20260507194544 | 17 | 344 | 0.0 | 9.7 | 0.00 | 0.13 | 0.00 | 79 | 1009.7 |
| 20260507194044 | 18 | 317 | 4.8 | 12.9 | 0.00 | 0.13 | 0.00 | 79 | 1009.6 |
| 20260507193544 | 18 | 309 | 4.8 | 16.1 | 0.00 | 0.13 | 0.00 | 79 | 1009.6 |
| 20260507193044 | 17 | 316 | 6.4 | 14.5 | 0.00 | 0.13 | 0.00 | 79 | 1009.6 |
| 20260507192544 | 18 | 326 | 4.8 | 12.9 | 0.00 | 0.13 | 0.00 | 79 | 1009.7 |
| 20260507192044 | 18 | 329 | 8.0 | 12.9 | 0.00 | 0.13 | 0.00 | 79 | 1009.6 |
| 20260507191544 | 18 | 328 | 6.4 | 16.1 | 0.00 | 0.13 | 0.00 | 78 | 1009.6 |
| 20260507191044 | 18 | 355 | 12.9 | 17.7 | 0.00 | 0.13 | 0.00 | 78 | 1009.5 |
| 20260507190544 | 18 | 277 | 11.3 | 19.3 | 0.00 | 0.13 | 0.00 | 78 | 1009.6 |
| 20260507190048 | 18 | 325 | 4.8 | 12.9 | 0.00 | 0.13 | 0.00 | 77 | 1009.6 |
| 20260507185545 | 18 | 331 | 6.4 | 12.9 | 0.00 | 0.13 | 0.00 | 77 | 1009.6 |
| 20260507185044 | 18 | 330 | 3.2 | 12.9 | 0.00 | 0.13 | 0.00 | 76 | 1009.5 |
| 20260507184545 | 18 | 324 | 1.6 | 9.7 | 0.00 | 0.13 | 0.00 | 75 | 1009.6 |
| 20260507184044 | 18 | 274 | 4.8 | 17.7 | 0.00 | 0.13 | 0.00 | 75 | 1009.7 |
| 20260507183544 | 18 | 309 | 8.0 | 12.9 | 0.00 | 0.13 | 0.00 | 75 | 1009.7 |
| 20260507183044 | 18 | 317 | 6.4 | 14.5 | 0.00 | 0.13 | 0.00 | 75 | 1009.6 |
| 20260507182544 | 19 | 274 | 3.2 | 8.0 | 0.00 | 0.13 | 0.00 | 74 | 1009.6 |
| 20260507182044 | 19 | 337 | 1.6 | 9.7 | 0.00 | 0.13 | 0.00 | 74 | 1009.7 |
| 20260507181545 | 19 | 309 | 1.6 | 11.3 | 0.00 | 0.13 | 0.00 | 74 | 1009.7 |
| 20260507181045 | 19 | 321 | 8.0 | 16.1 | 0.00 | 0.13 | 0.00 | 73 | 1009.6 |
| 20260507180544 | 19 | 317 | 16.1 | 14.5 | 0.00 | 0.13 | 0.00 | 73 | 1009.6 |
| 20260507180044 | 19 | 325 | 6.4 | 14.5 | 0.00 | 0.13 | 0.00 | 72 | 1009.7 |
| 20260507175544 | 20 | 304 | 4.8 | 17.7 | 0.00 | 0.13 | 0.00 | 72 | 1009.6 |
| 20260507175044 | 20 | 316 | 9.7 | 19.3 | 0.00 | 0.13 | 0.00 | 71 | 1009.6 |
| 20260507174544 | 20 | 312 | 4.8 | 14.5 | 0.00 | 0.13 | 0.00 | 71 | 1009.7 |
| 20260507174044 | 20 | 276 | 4.8 | 6.4 | 0.00 | 0.13 | 0.00 | 70 | 1009.7 |
| 20260507173544 | 20 | 314 | 1.6 | 6.4 | 0.00 | 0.13 | 0.00 | 70 | 1009.7 |
| 20260507173044 | 20 | 294 | 0.0 | 8.0 | 0.00 | 0.13 | 0.00 | 71 | 1009.7 |
| 20260507172544 | 20 | 259 | 0.0 | 8.0 | 0.00 | 0.13 | 0.00 | 70 | 1009.8 |
| 20260507172044 | 20 | 355 | 0.0 | 8.0 | 0.00 | 0.13 | 0.00 | 70 | 1009.7 |
| 20260507171544 | 20 | 255 | 1.6 | 9.7 | 0.00 | 0.13 | 0.00 | 69 | 1009.6 |
| 20260507171044 | 21 | 275 | 0.0 | 6.4 | 0.00 | 0.13 | 0.00 | 69 | 1009.7 |
| 20260507170544 | 21 | 322 | 1.6 | 9.7 | 0.00 | 0.13 | 0.00 | 68 | 1009.8 |
| 20260507170044 | 21 | 215 | 3.2 | 11.3 | 0.00 | 0.13 | 0.00 | 68 | 1009.8 |
| 20260507165544 | 21 | 278 | 0.0 | 9.7 | 0.00 | 0.13 | 0.00 | 68 | 1009.8 |
| 20260507165044 | 21 | 320 | 0.0 | 6.4 | 0.00 | 0.13 | 0.00 | 68 | 1009.8 |
| 20260507164544 | 21 | 320 | 4.8 | 4.8 | 0.00 | 0.13 | 0.00 | 67 | 1009.8 |
| 20260507164047 | 21 | 240 | 0.0 | 9.7 | 0.00 | 0.13 | 0.00 | 68 | 1009.8 |
| 20260507163547 | 21 | 291 | 1.6 | 4.8 | 0.00 | 0.13 | 0.00 | 69 | 1009.8 |
| 20260507163044 | 21 | 273 | 1.6 | 8.0 | 0.00 | 0.13 | 0.00 | 68 | 1009.7 |
| 20260507162544 | 21 | 266 | 0.0 | 6.4 | 0.00 | 0.13 | 0.00 | 69 | 1009.6 |
| 20260507162044 | 21 | 248 | 1.6 | 6.4 | 0.00 | 0.13 | 0.00 | 69 | 1009.6 |
| 20260507161544 | 21 | 310 | 4.8 | 6.4 | 0.00 | 0.13 | 0.00 | 69 | 1009.7 |
| 20260507161044 | 21 | 323 | 0.0 | 9.7 | 0.00 | 0.13 | 0.00 | 68 | 1009.7 |
| 20260507160544 | 22 | 5 | 1.6 | 8.0 | 0.00 | 0.13 | 0.00 | 69 | 1009.7 |
| 20260507160044 | 22 | 221 | 4.8 | 8.0 | 0.00 | 0.13 | 0.00 | 69 | 1009.6 |
| 20260507155544 | 22 | 113 | 3.2 | 9.7 | 0.00 | 0.13 | 0.00 | 68 | 1009.6 |
| 20260507155044 | 22 | 205 | 4.8 | 8.0 | 0.00 | 0.13 | 0.00 | 69 | 1009.6 |
| 20260507154544 | 22 | 306 | 1.6 | 4.8 | 0.00 | 0.13 | 0.00 | 70 | 1009.6 |
| 20260507154044 | 21 | 336 | 1.6 | 12.9 | 0.00 | 0.13 | 0.00 | 70 | 1009.5 |
| 20260507153544 | 21 | 305 | 11.3 | 12.9 | 0.00 | 0.13 | 0.00 | 72 | 1009.6 |
| 20260507153044 | 21 | 237 | 0.0 | 8.0 | 0.00 | 0.13 | 0.00 | 72 | 1009.6 |
| 20260507152544 | 21 | 244 | 1.6 | 6.4 | 0.00 | 0.13 | 0.00 | 72 | 1009.6 |
| 20260507152044 | 21 | 222 | 3.2 | 8.0 | 0.00 | 0.13 | 0.00 | 73 | 1009.6 |
| 20260507151547 | 21 | 12 | 1.6 | 9.7 | 0.00 | 0.13 | 0.00 | 73 | 1009.6 |
| 20260507151044 | 21 | 308 | 0.0 | 4.8 | 0.00 | 0.13 | 0.00 | 73 | 1009.7 |
| 20260507150544 | 21 | 223 | 1.6 | 8.0 | 0.00 | 0.13 | 0.00 | 72 | 1009.8 |
| 20260507150044 | 21 | 288 | 3.2 | 11.3 | 0.00 | 0.13 | 0.00 | 72 | 1009.9 |
| 20260507145544 | 21 | 149 | 1.6 | 14.5 | 0.00 | 0.13 | 0.00 | 71 | 1009.9 |
| 20260507145044 | 21 | 188 | 6.4 | 11.3 | 0.00 | 0.13 | 0.00 | 71 | 1009.8 |
| 20260507144544 | 21 | 188 | 1.6 | 11.3 | 0.00 | 0.13 | 0.00 | 70 | 1009.9 |
| 20260507144047 | 22 | 150 | 4.8 | 16.1 | 0.00 | 0.13 | 0.00 | 69 | 1009.9 |
| 20260507143544 | 22 | 195 | 11.3 | 9.7 | 0.00 | 0.13 | 0.00 | 69 | 1009.9 |
| 20260507143047 | 22 | 335 | 1.6 | 8.0 | 0.00 | 0.13 | 0.00 | 69 | 1009.9 |
| 20260507142544 | 22 | 42 | 1.6 | 9.7 | 0.00 | 0.13 | 0.00 | 69 | 1009.9 |
| 20260507142044 | 22 | 24 | 1.6 | 6.4 | 0.00 | 0.13 | 0.00 | 69 | 1009.9 |
| 20260507141544 | 22 | 34 | 1.6 | 4.8 | 0.00 | 0.13 | 0.00 | 69 | 1009.9 |
| 20260507141044 | 21 | 246 | 4.8 | 8.0 | 0.00 | 0.13 | 0.00 | 69 | 1010.0 |
| 20260507140544 | 21 | 141 | 1.6 | 9.7 | 0.00 | 0.13 | 0.00 | 69 | 1010.2 |
| 20260507140044 | 21 | 186 | 0.0 | 9.7 | 0.00 | 0.13 | 0.00 | 69 | 1010.4 |
| 20260507135547 | 21 | 269 | 6.4 | 6.4 | 0.00 | 0.13 | 0.00 | 70 | 1010.4 |
| 20260507135044 | 21 | 95 | 3.2 | 8.0 | 0.00 | 0.13 | 0.00 | 71 | 1010.5 |
| 20260507134544 | 21 | 289 | 1.6 | 9.7 | 0.00 | 0.13 | 0.00 | 71 | 1010.6 |
| 20260507134044 | 21 | 168 | 1.6 | 6.4 | 0.00 | 0.13 | 0.00 | 71 | 1010.8 |
| 20260507133544 | 21 | 126 | 3.2 | 12.9 | 0.00 | 0.13 | 0.00 | 72 | 1010.9 |
| 20260507133047 | 20 | 179 | 4.8 | 6.4 | 0.00 | 0.13 | 0.00 | 71 | 1010.9 |
| 20260507132547 | 20 | 62 | 3.2 | 9.7 | 0.00 | 0.13 | 0.00 | 71 | 1011.0 |
| 20260507132044 | 20 | 350 | 0.0 | 9.7 | 0.00 | 0.13 | 0.00 | 71 | 1011.1 |
| 20260507131544 | 20 | 184 | 1.6 | 12.9 | 0.00 | 0.13 | 0.00 | 71 | 1011.0 |
| 20260507131044 | 21 | 355 | 1.6 | 16.1 | 0.00 | 0.13 | 0.00 | 70 | 1011.1 |
| 20260507130544 | 21 | 173 | 8.0 | 11.3 | 0.00 | 0.13 | 0.00 | 70 | 1011.2 |
| 20260507130044 | 21 | 180 | 1.6 | 9.7 | 0.00 | 0.13 | 0.00 | 70 | 1011.2 |
| 20260507125544 | 21 | 36 | 1.6 | 9.7 | 0.00 | 0.13 | 0.00 | 70 | 1011.3 |
| 20260507125044 | 21 | 302 | 1.6 | 19.3 | 0.00 | 0.13 | 0.00 | 70 | 1011.3 |
| 20260507124544 | 21 | 181 | 3.2 | 19.3 | 0.00 | 0.13 | 0.00 | 70 | 1011.3 |
| 20260507124044 | 21 | 184 | 8.0 | 16.1 | 0.00 | 0.13 | 0.00 | 69 | 1011.3 |
| 20260507123544 | 21 | 265 | 3.2 | 17.7 | 0.00 | 0.13 | 0.00 | 69 | 1011.2 |
| 20260507123044 | 21 | 215 | 0.0 | 12.9 | 0.00 | 0.13 | 0.00 | 68 | 1011.3 |
| 20260507122544 | 21 | 244 | 6.4 | 12.9 | 0.00 | 0.13 | 0.00 | 68 | 1011.2 |
| 20260507122044 | 21 | 196 | 12.9 | 17.7 | 0.00 | 0.13 | 0.00 | 68 | 1011.3 |
| 20260507121544 | 22 | 340 | 3.2 | 16.1 | 0.00 | 0.13 | 0.00 | 66 | 1011.3 |
| 20260507121044 | 22 | 260 | 1.6 | 19.3 | 0.00 | 0.13 | 0.00 | 65 | 1011.3 |
| 20260507120544 | 23 | 175 | 6.4 | 20.9 | 0.00 | 0.13 | 0.00 | 63 | 1011.2 |
| 20260507120044 | 23 | 220 | 4.8 | 12.9 | 0.00 | 0.13 | 0.00 | 58 | 1011.3 |
| 20260507115547 | 23 | 42 | 3.2 | 6.4 | 0.00 | 0.13 | 0.00 | 54 | 1011.3 |
| 20260507115044 | 23 | 30 | 0.0 | 3.2 | 0.00 | 0.13 | 0.00 | 56 | 1011.2 |
| 20260507114544 | 23 | 29 | 1.6 | 6.4 | 0.00 | 0.13 | 0.00 | 56 | 1011.2 |
| 20260507114044 | 22 | 344 | 3.2 | 8.0 | 0.00 | 0.13 | 0.00 | 57 | 1011.2 |
| 20260507113544 | 22 | 69 | 8.0 | 8.0 | 0.00 | 0.13 | 0.00 | 57 | 1011.3 |
| 20260507113044 | 22 | 321 | 6.4 | 6.4 | 0.00 | 0.13 | 0.00 | 56 | 1011.3 |
| 20260507112544 | 22 | 59 | 1.6 | 9.7 | 0.00 | 0.13 | 0.00 | 56 | 1011.3 |
| 20260507112044 | 22 | 29 | 3.2 | 9.7 | 0.00 | 0.13 | 0.00 | 57 | 1011.3 |
| 20260507111544 | 22 | 67 | 4.8 | 14.5 | 0.00 | 0.13 | 0.00 | 59 | 1011.5 |
| 20260507111044 | 22 | 290 | 1.6 | 12.9 | 0.00 | 0.13 | 0.00 | 61 | 1011.5 |
| 20260507110544 | 21 | 71 | 0.0 | 9.7 | 0.00 | 0.13 | 0.00 | 60 | 1011.6 |
| 20260507110047 | 21 | 355 | 6.4 | 14.5 | 0.00 | 0.13 | 0.00 | 60 | 1011.6 |
| 20260507105544 | 21 | 46 | 6.4 | 12.9 | 0.00 | 0.13 | 0.00 | 61 | 1011.6 |
| 20260507105044 | 21 | 350 | 3.2 | 8.0 | 0.00 | 0.13 | 0.00 | 62 | 1011.7 |
| 20260507104544 | 21 | 341 | 6.4 | 16.1 | 0.00 | 0.13 | 0.00 | 61 | 1011.8 |
| 20260507104044 | 21 | 355 | 3.2 | 6.4 | 0.00 | 0.13 | 0.00 | 62 | 1011.8 |
| 20260507103544 | 21 | 330 | 1.6 | 9.7 | 0.00 | 0.13 | 0.00 | 62 | 1011.9 |
| 20260507103044 | 21 | 327 | 6.4 | 17.7 | 0.00 | 0.13 | 0.00 | 63 | 1011.9 |
| 20260507102544 | 21 | 281 | 1.6 | 6.4 | 0.00 | 0.13 | 0.00 | 64 | 1011.9 |
| 20260507102044 | 21 | 301 | 0.0 | 14.5 | 0.00 | 0.13 | 0.00 | 64 | 1012.0 |
| 20260507101544 | 21 | 317 | 12.9 | 12.9 | 0.00 | 0.13 | 0.00 | 64 | 1012.1 |
| 20260507101044 | 21 | 312 | 6.4 | 14.5 | 0.00 | 0.13 | 0.00 | 63 | 1012.1 |
| 20260507100544 | 21 | 315 | 6.4 | 14.5 | 0.00 | 0.13 | 0.00 | 64 | 1012.2 |
| 20260507100044 | 21 | 323 | 4.8 | 12.9 | 0.00 | 0.13 | 0.00 | 65 | 1012.0 |
| 20260507095547 | 21 | 112 | 4.8 | 8.0 | 0.00 | 0.13 | 0.00 | 64 | 1012.0 |
| 20260507095047 | 21 | 319 | 9.7 | 17.7 | 0.00 | 0.13 | 0.00 | 63 | 1012.0 |
| 20260507094544 | 21 | 314 | 4.8 | 8.0 | 0.00 | 0.13 | 0.00 | 64 | 1012.2 |
| 20260507094044 | 20 | 322 | 1.6 | 9.7 | 0.00 | 0.13 | 0.00 | 65 | 1012.2 |
| 20260507093547 | 21 | 22 | 3.2 | 12.9 | 0.00 | 0.13 | 0.00 | 64 | 1012.2 |
| 20260507093044 | 21 | 80 | 12.9 | 12.9 | 0.00 | 0.13 | 0.00 | 63 | 1012.2 |
| 20260507092547 | 21 | 38 | 4.8 | 4.8 | 0.00 | 0.13 | 0.00 | 66 | 1012.2 |
| 20260507092048 | 20 | 40 | 0.0 | 6.4 | 0.00 | 0.13 | 0.00 | 67 | 1012.3 |
| 20260507091544 | 20 | 111 | 3.2 | 6.4 | 0.00 | 0.13 | 0.00 | 67 | 1012.2 |
| 20260507091044 | 20 | 344 | 3.2 | 8.0 | 0.00 | 0.13 | 0.00 | 67 | 1012.2 |
| 20260507090544 | 20 | 349 | 3.2 | 8.0 | 0.00 | 0.13 | 0.00 | 68 | 1012.2 |
| 20260507090044 | 20 | 321 | 0.0 | 9.7 | 0.00 | 0.13 | 0.00 | 68 | 1012.1 |
| 20260507085544 | 19 | 39 | 1.6 | 6.4 | 0.00 | 0.13 | 0.00 | 69 | 1012.1 |
| 20260507085044 | 19 | 37 | 6.4 | 14.5 | 0.00 | 0.13 | 0.00 | 68 | 1012.0 |
| 20260507084544 | 19 | 311 | 6.4 | 14.5 | 0.00 | 0.13 | 0.00 | 69 | 1012.0 |
| 20260507084044 | 19 | 320 | 8.0 | 9.7 | 0.00 | 0.13 | 0.00 | 69 | 1012.1 |
| 20260507083544 | 20 | 329 | 8.0 | 9.7 | 0.00 | 0.13 | 0.00 | 68 | 1012.2 |
| 20260507083044 | 20 | 309 | 1.6 | 4.8 | 0.00 | 0.13 | 0.00 | 69 | 1012.3 |
| 20260507082544 | 20 | 308 | 1.6 | 8.0 | 0.00 | 0.13 | 0.00 | 69 | 1012.2 |
| 20260507082044 | 19 | 304 | 0.0 | 9.7 | 0.00 | 0.13 | 0.00 | 70 | 1012.1 |
| 20260507081544 | 19 | 355 | 1.6 | 9.7 | 0.00 | 0.13 | 0.00 | 68 | 1012.2 |
| 20260507081047 | 20 | 271 | 4.8 | 4.8 | 0.00 | 0.13 | 0.00 | 70 | 1012.2 |
| 20260507080547 | 19 | 190 | 3.2 | 4.8 | 0.00 | 0.13 | 0.00 | 71 | 1012.1 |
| 20260507080044 | 19 | 194 | 1.6 | 9.7 | 0.00 | 0.13 | 0.00 | 71 | 1012.2 |
| 20260507075544 | 18 | 153 | 3.2 | 8.0 | 0.00 | 0.13 | 0.00 | 71 | 1012.2 |
| 20260507075044 | 18 | 152 | 4.8 | 6.4 | 0.00 | 0.13 | 0.00 | 71 | 1012.2 |
| 20260507074544 | 18 | 146 | 1.6 | 11.3 | 0.00 | 0.13 | 0.00 | 70 | 1012.2 |
| 20260507074044 | 18 | 212 | 0.0 | 3.2 | 0.00 | 0.13 | 0.00 | 72 | 1012.2 |
| 20260507073544 | 18 | 213 | 0.0 | 6.4 | 0.00 | 0.13 | 0.00 | 71 | 1012.3 |
| 20260507073044 | 18 | 188 | 3.2 | 4.8 | 0.00 | 0.13 | 0.00 | 72 | 1012.3 |
| 20260507072547 | 18 | 189 | 1.6 | 4.8 | 0.00 | 0.13 | 0.00 | 72 | 1012.4 |
| 20260507072044 | 18 | 190 | 0.0 | 12.9 | 0.00 | 0.13 | 0.00 | 73 | 1012.4 |
| 20260507071547 | 18 | 171 | 1.6 | 11.3 | 0.00 | 0.13 | 0.00 | 72 | 1012.5 |
| 20260507071044 | 18 | 163 | 0.0 | 3.2 | 0.00 | 0.13 | 0.00 | 75 | 1012.5 |
| 20260507070544 | 18 | 163 | 1.6 | 8.0 | 0.00 | 0.13 | 0.00 | 75 | 1012.6 |
| 20260507070044 | 18 | 162 | 0.0 | 9.7 | 0.00 | 0.13 | 0.00 | 76 | 1012.6 |
| 20260507065544 | 17 | 138 | 1.6 | 11.3 | 0.00 | 0.13 | 0.00 | 77 | 1012.6 |
| 20260507065044 | 17 | 174 | 3.2 | 4.8 | 0.00 | 0.13 | 0.00 | 78 | 1012.7 |
| 20260507064547 | 17 | 174 | 3.2 | 12.9 | 0.00 | 0.13 | 0.00 | 77 | 1012.7 |
| 20260507064048 | 17 | 152 | 0.0 | 9.7 | 0.00 | 0.13 | 0.00 | 79 | 1012.6 |
| 20260507063544 | 17 | 158 | 3.2 | 11.3 | 0.00 | 0.13 | 0.00 | 78 | 1012.4 |
| 20260507063044 | 17 | 150 | 0.0 | 8.0 | 0.00 | 0.13 | 0.00 | 79 | 1012.3 |
| 20260507062544 | 17 | 162 | 6.4 | 9.7 | 0.00 | 0.13 | 0.00 | 80 | 1012.3 |
| 20260507062044 | 17 | 150 | 4.8 | 12.9 | 0.00 | 0.13 | 0.00 | 80 | 1012.2 |
| 20260507061544 | 16 | 136 | 0.0 | 6.4 | 0.00 | 0.13 | 0.00 | 81 | 1012.2 |
| 20260507061044 | 16 | 140 | 3.2 | 8.0 | 0.00 | 0.13 | 0.00 | 81 | 1012.1 |
| 20260507060544 | 16 | 128 | 3.2 | 6.4 | 0.00 | 0.13 | 0.00 | 82 | 1012.1 |
| 20260507060047 | 16 | 117 | 6.4 | 6.4 | 0.00 | 0.13 | 0.00 | 82 | 1012.1 |
| 20260507055544 | 16 | 140 | 3.2 | 4.8 | 0.00 | 0.10 | 0.00 | 83 | 1012.2 |
| 20260507055047 | 15 | 140 | 0.0 | 6.4 | 0.00 | 0.10 | 0.00 | 83 | 1012.1 |
| 20260507054544 | 15 | 141 | 1.6 | 8.0 | 0.00 | 0.10 | 0.00 | 82 | 1012.0 |
| 20260507054044 | 15 | 116 | 1.6 | 4.8 | 0.00 | 0.10 | 0.00 | 82 | 1012.0 |
| 20260507053544 | 15 | 115 | 1.6 | 6.4 | 0.00 | 0.10 | 0.00 | 82 | 1012.1 |
| 20260507053044 | 15 | 78 | 4.8 | 6.4 | 0.00 | 0.10 | 0.00 | 83 | 1012.1 |
| 20260507052544 | 15 | 78 | 0.0 | 4.8 | 0.00 | 0.10 | 0.00 | 84 | 1012.0 |
| 20260507052047 | 15 | 78 | 3.2 | 6.4 | 0.00 | 0.10 | 0.00 | 84 | 1012.0 |
| 20260507051544 | 15 | 77 | 3.2 | 8.0 | 0.00 | 0.10 | 0.00 | 84 | 1012.0 |
| 20260507051044 | 15 | 75 | 1.6 | 4.8 | 0.00 | 0.10 | 0.00 | 84 | 1012.0 |
| 20260507050544 | 15 | 75 | 4.8 | 6.4 | 0.00 | 0.10 | 0.00 | 84 | 1012.0 |
| 20260507050047 | 15 | 75 | 4.8 | 4.8 | 0.00 | 0.10 | 0.00 | 85 | 1012.0 |
| 20260507045544 | 15 | 74 | 3.2 | 6.4 | 0.00 | 0.10 | 0.00 | 85 | 1011.9 |
| 20260507045044 | 14 | 74 | 1.6 | 3.2 | 0.00 | 0.10 | 0.00 | 85 | 1011.9 |
| 20260507044544 | 14 | 74 | 3.2 | 4.8 | 0.00 | 0.13 | 0.00 | 85 | 1011.9 |
| 20260507044044 | 14 | 74 | 1.6 | 3.2 | 0.00 | 0.13 | 0.00 | 85 | 1011.9 |
| 20260507043544 | 14 | 74 | 1.6 | 4.8 | 0.00 | 0.13 | 0.00 | 85 | 1011.9 |
| 20260507043044 | 14 | 74 | 1.6 | 4.8 | 0.00 | 0.13 | 0.00 | 85 | 1011.8 |
| 20260507042547 | 14 | 74 | 3.2 | 4.8 | 0.00 | 0.13 | 0.00 | 85 | 1011.8 |
| 20260507042047 | 14 | 74 | 1.6 | 4.8 | 0.00 | 0.13 | 0.00 | 85 | 1011.8 |
| 20260507041544 | 14 | 74 | 4.8 | 8.0 | 0.00 | 0.13 | 0.00 | 85 | 1011.8 |
| 20260507041044 | 14 | 67 | 6.4 | 8.0 | 0.00 | 0.13 | 0.00 | 85 | 1011.7 |
| 20260507040544 | 14 | 65 | 3.2 | 4.8 | 0.00 | 0.13 | 0.00 | 85 | 1011.7 |
| 20260507040044 | 14 | 65 | 4.8 | 6.4 | 0.00 | 0.13 | 0.00 | 85 | 1011.7 |
| 20260507035544 | 15 | 65 | 1.6 | 6.4 | 0.00 | 0.13 | 0.00 | 85 | 1011.6 |
| 20260507035044 | 15 | 65 | 3.2 | 8.0 | 0.00 | 0.13 | 0.00 | 85 | 1011.7 |
| 20260507034544 | 15 | 63 | 4.8 | 6.4 | 0.00 | 0.13 | 0.00 | 84 | 1011.7 |
| 20260507034044 | 15 | 60 | 3.2 | 3.2 | 0.00 | 0.13 | 0.00 | 84 | 1011.8 |
| 20260507033544 | 15 | 60 | 3.2 | 6.4 | 0.00 | 0.13 | 0.00 | 84 | 1011.8 |
| 20260507033044 | 15 | 60 | 0.0 | 4.8 | 0.00 | 0.13 | 0.00 | 85 | 1011.9 |
| 20260507032547 | 14 | 60 | 1.6 | 6.4 | 0.00 | 0.13 | 0.00 | 85 | 1011.8 |
| 20260507032047 | 14 | 36 | 6.4 | 6.4 | 0.00 | 0.13 | 0.00 | 85 | 1011.8 |
| 20260507031544 | 14 | 346 | 3.2 | 4.8 | 0.00 | 0.13 | 0.00 | 85 | 1011.9 |
| 20260507031044 | 14 | 346 | 0.0 | 1.6 | 0.00 | 0.13 | 0.00 | 85 | 1011.9 |
| 20260507030544 | 14 | 346 | 0.0 | 3.2 | 0.00 | 0.13 | 0.00 | 86 | 1011.8 |
| 20260507030044 | 14 | 346 | 1.6 | 3.2 | 0.00 | 0.13 | 0.00 | 86 | 1011.8 |
| 20260507025544 | 14 | 346 | 1.6 | 3.2 | 0.00 | 0.13 | 0.00 | 86 | 1011.8 |
| 20260507025044 | 14 | 346 | 1.6 | 4.8 | 0.00 | 0.13 | 0.00 | 86 | 1011.8 |
| 20260507024547 | 14 | 346 | 3.2 | 4.8 | 0.00 | 0.13 | 0.00 | 86 | 1011.8 |
| 20260507024044 | 14 | 346 | 1.6 | 8.0 | 0.00 | 0.13 | 0.00 | 86 | 1011.7 |
| 20260507023544 | 14 | 345 | 6.4 | 6.4 | 0.00 | 0.13 | 0.00 | 87 | 1011.8 |
| 20260507023044 | 14 | 345 | 3.2 | 8.0 | 0.00 | 0.13 | 0.00 | 87 | 1011.8 |
| 20260507022544 | 14 | 344 | 3.2 | 6.4 | 0.00 | 0.13 | 0.00 | 87 | 1011.8 |
| 20260507022047 | 14 | 340 | 6.4 | 8.0 | 0.00 | 0.13 | 0.00 | 88 | 1011.8 |
| 20260507021545 | 14 | 331 | 4.8 | 8.0 | 0.00 | 0.13 | 0.00 | 88 | 1011.8 |
| 20260507021048 | 14 | 341 | 4.8 | 8.0 | 0.00 | 0.13 | 0.00 | 88 | 1011.8 |
| 20260507020544 | 14 | 340 | 8.0 | 8.0 | 0.00 | 0.13 | 0.00 | 88 | 1011.8 |
| 20260507020044 | 14 | 335 | 6.4 | 9.7 | 0.00 | 0.13 | 0.00 | 88 | 1011.8 |
| 20260507015544 | 14 | 332 | 4.8 | 6.4 | 0.00 | 0.13 | 0.00 | 88 | 1011.8 |
| 20260507015047 | 14 | 331 | 1.6 | 4.8 | 0.00 | 0.13 | 0.00 | 88 | 1011.8 |
| 20260507014544 | 14 | 331 | 0.0 | 4.8 | 0.00 | 0.13 | 0.00 | 88 | 1011.7 |
| 20260507014044 | 14 | 345 | 3.2 | 4.8 | 0.00 | 0.13 | 0.00 | 88 | 1011.8 |
| 20260507013547 | 14 | 104 | 1.6 | 3.2 | 0.00 | 0.13 | 0.00 | 88 | 1011.7 |
| 20260507013047 | 14 | 105 | 0.0 | 4.8 | 0.00 | 0.13 | 0.00 | 88 | 1011.7 |
| 20260507012544 | 14 | 105 | 0.0 | 3.2 | 0.00 | 0.13 | 0.00 | 89 | 1011.7 |
| 20260507012044 | 14 | 105 | 0.0 | 4.8 | 0.00 | 0.13 | 0.00 | 89 | 1011.7 |
| 20260507011544 | 13 | 105 | 1.6 | 3.2 | 0.00 | 0.13 | 0.00 | 89 | 1011.7 |
| 20260507011044 | 13 | 108 | 0.0 | 3.2 | 0.00 | 0.13 | 0.00 | 90 | 1011.6 |
| 20260507010547 | 13 | 108 | 0.0 | 4.8 | 0.00 | 0.13 | 0.00 | 90 | 1011.5 |
| 20260507010044 | 13 | 108 | 1.6 | 6.4 | 0.00 | 0.13 | 0.00 | 90 | 1011.6 |
| 20260507005544 | 13 | 108 | 4.8 | 9.7 | 0.00 | 0.13 | 0.00 | 90 | 1011.7 |
| 20260507005047 | 13 | 108 | 1.6 | 4.8 | 0.00 | 0.13 | 0.00 | 90 | 1011.7 |
| 20260507004544 | 13 | 107 | 3.2 | 6.4 | 0.00 | 0.13 | 0.00 | 91 | 1011.7 |
| 20260507004044 | 13 | 103 | 1.6 | 6.4 | 0.00 | 0.13 | 0.00 | 91 | 1011.7 |
| 20260507003547 | 13 | 91 | 3.2 | 6.4 | 0.00 | 0.13 | 0.00 | 91 | 1011.8 |
| 20260507003044 | 13 | 111 | 6.4 | 9.7 | 0.00 | 0.13 | 0.00 | 90 | 1011.8 |
| 20260507002544 | 13 | 87 | 0.0 | 9.7 | 0.00 | 0.13 | 0.00 | 91 | 1011.9 |
| 20260507002044 | 13 | 103 | 1.6 | 11.3 | 0.00 | 0.13 | 0.00 | 91 | 1011.9 |
| 20260507001544 | 13 | 88 | 4.8 | 12.9 | 0.00 | 0.13 | 0.00 | 91 | 1011.8 |
| 20260507001044 | 13 | 138 | 4.8 | 16.1 | 0.00 | 0.13 | 0.00 | 91 | 1011.8 |
| 20260507000544 | 13 | 144 | 8.0 | 11.3 | 0.00 | 0.13 | 0.00 | 91 | 1011.8 |
| 20260507000044 | 13 | 148 | 6.4 | 16.1 | 0.03 | 0.13 | 0.00 | 91 | 1011.9 |
| 20260506235544 | 13 | 81 | 11.3 | 16.1 | 0.03 | 0.13 | 0.00 | 91 | 1011.9 |
| 20260506235044 | 14 | 135 | 4.8 | 14.5 | 0.05 | 0.13 | 0.00 | 91 | 1011.9 |
| 20260506234544 | 14 | 95 | 9.7 | 16.1 | 0.05 | 0.13 | 0.00 | 91 | 1012.0 |
| 20260506234044 | 14 | 113 | 4.8 | 12.9 | 0.08 | 0.13 | 0.00 | 91 | 1012.0 |
| 20260506233544 | 14 | 133 | 8.0 | 14.5 | 0.08 | 0.13 | 0.00 | 91 | 1012.1 |
| 20260506233044 | 14 | 154 | 6.4 | 17.7 | 0.08 | 0.13 | 0.00 | 90 | 1012.2 |
| 20260506232544 | 14 | 213 | 9.7 | 19.3 | 0.08 | 0.13 | 0.00 | 90 | 1012.2 |
| 20260506232044 | 14 | 146 | 16.1 | 19.3 | 0.08 | 0.13 | 0.00 | 90 | 1012.2 |
| 20260506231544 | 14 | 140 | 14.5 | 22.5 | 0.08 | 0.10 | 0.00 | 90 | 1012.1 |
| 20260506231044 | 14 | 154 | 12.9 | 22.5 | 0.08 | 0.10 | 0.00 | 90 | 1012.1 |
| 20260506230544 | 14 | 146 | 16.1 | 22.5 | 0.08 | 0.10 | 0.00 | 90 | 1012.1 |